QuetzSat-1

operational
NORAD ID: 37826 Int'l Des: 2011-054 Owner: SESSL Country: UK
HEOCIRCULARGSOGEO

About QuetzSat-1

Description loading...

Live Position

Loading 3D Globe...

Upcoming Passes

Altitude History

Altitude vs Time

uPlot chart will show altitude changes over time

Two-Line Element Set

1 37826U 11054A 26062.57121398 -.00000256 00000-0 00000-0 0 9993
2 37826 0.0550 289.1079 0002728 67.7478 293.1005 1.00271404 48812
Epoch: Mar 3, 2026 • Age: 23 hours

Current Status

Altitude 35783.1 km
Velocity 3.07 km/s
Sub-Earth Point -0.01°S, 76.97°W
Launch Date Sep 29, 2011
Age 14.4 years
Type other

Technical Details

Classification Payload
Mass 5514.00 kg
Dry Mass 2472.00 kg
Total Mass 5514.00 kg
Length 5.50 m
Diameter 2.20 m
Span 26.70 m
Shape Box + 2 Cruci Pan
Manufacturer LOR
Bus Type SSL-1300
Phase Status Renamed
Owner/State SESSL/UK

Large Constellations

Loading constellations...